Location: Buchdorf
(48.7842°N, 10.8275°E)
Time: 11:37:21
(UTC+00:00)

X-37B - Pass Details

Date: 15 March 2021
Orbit: 380 x 394 km, 45.0° (Epoch: 07 April)

Event Time Altitude Azimuth Distance (km) Brightness Sun altitude
Rises 20:11:16 0° 264° (W) 2,276 5.2 -27.4°
Reaches altitude 10° 20:13:24 10° 257° (WSW) 1,423 3.9 -27.7°
Enters shadow 20:13:29 11° 257° (WSW) 1,394 3.9 -27.7°
